User: anonymous   Login
Location: Unspecified
(0.0000°N, 0.0000°E)
Time: 00:58:31
(UTC+00:00)
Language:

Explorer 11/Cluster Stage 4 - Orbit

View from above orbital plane
View from above orbital plane
View from above satellite
View from above satellite

Ground track
Ground track

The orbit data is extracted from the following two-line orbital elements,

1   107U 61013A   19107.21669211 +.00000276 +00000-0 +16645-4 0  9996
2   107 028.7877 073.9718 0547566 151.4845 211.6843 14.08766639905475
Epoch (UTC): 17 April 2019 05:12:02
Eccentricity: 0.0547566
inclination: 28.7877°
perigee height: 467 km
apogee height: 1260 km
right ascension of ascending node: 73.9718°
argument of perigee: 151.4845°
revolutions per day: 14.08766639
mean anomaly at epoch: 211.6843°
orbit number at epoch: 90547

The dashed part of the orbit path shows where the satellite is in the earth's shadow,  

DLR